This is the latest recevied weather packets stored in our database for station/object W8AN. If no packets are shown the sender has not sent any weather packets the latest 10 day(s).
| Time | Temp. | Humidity | Pressure | Rain* | Wind** | Luminosity | Snow |
|---|---|---|---|---|---|---|---|
| 1777849242 | 12.22° C | 62% | 4266.9 hPa | 0 mm | - | 68 W/m² | - |
| 1777848938 | 12.78° C | 61% | 4267.1 hPa | 0 mm | - | 67 W/m² | - |
| 1777848633 | 12.78° C | 59% | 4267 hPa | 0 mm | - | 58 W/m² | - |
| 1777848331 | 13.33° C | 58% | 4266.7 hPa | 0 mm | - | 156 W/m² | - |
| 1777848029 | 13.89° C | 58% | 4266.7 hPa | 0 mm | - | 117 W/m² | - |
| 1777847727 | 13.89° C | 55% | 4266.7 hPa | 0 mm | - | 189 W/m² | - |
| 1777847422 | 14.44° C | 54% | 4266.5 hPa | 0 mm | - | 203 W/m² | - |
| 1777847120 | 14.44° C | 52% | 4266.3 hPa | 0 mm | - | 162 W/m² | - |
| 1777846818 | 15° C | 51% | 4266.5 hPa | 0 mm | - | 193 W/m² | - |
| 1777846516 | 15.56° C | 47% | 4266.3 hPa | 0 mm | - | 232 W/m² | - |
| 1777846213 | 15.56° C | 39% | 4266.3 hPa | 0 mm | - | 105 W/m² | - |
| 1777845909 | 16.11° C | 38% | 4266.3 hPa | 0 mm | - | 305 W/m² | - |
| 1777845606 | 16.11° C | 38% | 4266.3 hPa | 0 mm | - | 348 W/m² | - |
| 1777845303 | 15.56° C | 38% | 4266 hPa | 0 mm | - | 327 W/m² | - |
| 1777845000 | 15.56° C | 38% | 4266.2 hPa | 0 mm | - | 214 W/m² | - |
| 1777844698 | 15.56° C | 37% | 4266.3 hPa | 0 mm | - | 167 W/m² | - |
| 1777844395 | 16.11° C | 38% | 4266.3 hPa | 0 mm | - | 161 W/m² | - |
| 1777844093 | 16.11° C | 36% | 4266.2 hPa | 0 mm | - | 263 W/m² | - |
| 1777843789 | 16.11° C | 37% | 4266.5 hPa | 0 mm | - | 291 W/m² | - |
| 1777843487 | 16.11° C | 37% | 4266.1 hPa | 0 mm | - | 327 W/m² | - |
| 1777843184 | 16.11° C | 36% | 4266.4 hPa | 0 mm | - | 276 W/m² | - |
| 1777842881 | 16.11° C | 36% | 4266.1 hPa | 0 mm | - | 248 W/m² | - |
| 1777842577 | 16.11° C | 36% | 4266.4 hPa | 0 mm | - | 207 W/m² | - |
| 1777842273 | 16.11° C | 35% | 4266.5 hPa | 0 mm | - | 349 W/m² | - |
| 1777841968 | 16.11° C | 37% | 4266.5 hPa | 0 mm | - | 471 W/m² | - |
* Rain latest hour (hover to see other rain measurements)
** Current wind speed in m/s (hover to see current wind gust speed)